SCP
0 0 0 0 0 0 0 0 0 0 0 0 0 0 0 0 0 0 0 0 0 0 0 0 0 0 0 0 0 0 0 0 0 0 0 0 0 0 0 0 0 0 0 0 0
0 0 0 0 0 0 0 0 0 0 0 0 0 0 0 0 0 0 0 0 0 0 0 0 0 0 0 0 0 0 0 0 0 0 0 0 0 0 0 0 0 0 0 0 0
0 0 0 0 0 0 0 0 0 0 0 0 0 0 0 0 0 0 0 0 0 0 0 0 0 0 0 0 0 0 0 0 0 0 0 0 0 0 0 0 0 0 0 0 0
0 0 0 0 0 0 0 0 0 0 0 0 0 0 0 0 0 0 0 0 0 0 0 0 0 0 0 0 0 0 0 0 0 0 0 0 0 0 0 0 0 0 0 0 0
0 0 0 0 0 0 0 0 0 0 0 0 0 0 0 0 0 0 0 0 0 0 0 0 0 0 0 0 0 0 0 0 0 0 0 0 0 0 0 0 0 0 0 0 0
0 0 0 0 0 0 0 0 0 0 0 0 0 0 0 0 0 0 0 0 0 0 0 0 0 0 0 0 0 0 0 0 0 0 0 0 0 0 0 0 0 0 0 0 0
0 0 0 0 0 0 0 0 0 0 0 0 0 0 0 0 0 0 0 0 0 0 0 0 0 0 0 0 0 0 0 0 0 0 0 0 0 0 0 0 0 0 0 0 0
0 0 0 0 0 0 0 0 0 0 0 0 0 0 0 0 0 0 0 0 0 0 0 0 0 0 0 0 0 0 0 0 0 0 0 0 0 0 0 0 0 0 0 0 0
0 0 0 0 0 0 0 0 0 0 0 0 0 0 0 0 0 0 0 0 0 0 0 0 0 0 0 0 0 0 0 0 0 0 0 0 0 0 0 0 0 0 0 0 0
0 0 0 0 0 0 0 0 -0 0 0 0 0 0 0 0 0 0 0 0 0 0 0 0 0 0 0 0 0 0 0 0 0 0 0 0 0 0 0 0 0 0 0 0 0
0 0 0 0 0 0 0 -0 0 0 0 0 0 0 0 0 0 0 0 0 0 0 0 0 0 0 0 0 0 0 0 0 0 0 0 0 0 0 0 0 0 0 0 0 0
0 0 0 0 0 0 0 -0 -0 0 0 0 0 0 0 0 0 0 0 0 0 0 0 0 0 0 0 0 0 0 0 0 0 0 0 0 0 0 0 0 0 0 0 0 0
0 0 0 0 0 0 0 0 0 -0 0 0 0 0 0 0 0 0 0 0 0 0 0 0 0 0 0 0 0 0 0 0 0 0 0 0 0 0 0 0 0 0 0 0 0
0 0 0 0 0 0 0 0 0 0 0 0 0 0 0 0 0 0 0 0 0 0 0 0 0 0 0 0 0 0 0 0 0 0 0 0 0 0 0 0 0 0 0 0 0
0 0 0 0 0 0 0 0 0 0 0 0 0 0 0 0 0 0 0 0 0 0 0 0 0 0 0 0 0 0 0 0 0 0 0 0 0 0 0 0 0 0 0 0 0
0 0 0 0 0 0 0 0 0 0 0 0 0 0 0 0 0 0 0 0 0 0 0 0 0 0 0 0 0 0 0 0 0 0 0 0 0 0 0 0 0 0 0 0 0
0 0 0 0 0 0 0 0 0 0 0 0 0 0 0 0 0 0 0 0 0 0 0 0 0 0 0 0 0 0 0 0 0 0 0 0 0 0 0 0 0 0 0 0 0
0 0 0 0 0 0 0 0 0 0 0 0 0 0 0 0 0 0 0 0 0 0 0 0 0 0 0 0 0 0 0 0 0 0 0 0 0 0 0 0 0 0 0 0 0
0 0 0 0 0 0 0 0 0 0 0 0 0 0 0 0 0 0 0 0 0 0 0 0 0 0 0 0 0 0 0 0 0 0 0 0 0 0 0 0 0 0 0 0 0
0 0 -0 0 0 0 0 0 0 0 0 0 0 0 0 0 0 0 0 0 0 0 0 0 0 0 0 0 0 0 0 0 0 0 0 0 0 0 0 0 0 0 0 0 0
0 0 0 0 0 0 0 0 0 0 0 0 0 0 0 0 0 0 0 0 0 0 0 0 0 0 0 0 0 0 0 0 0 0 0 0 0 0 0 0 0 0 0 0 0
0 0 0 0 0 0 0 0 0 0 0 0 0 0 0 0 0 0 0 0 0 0 0 0 0 0 0 0 0 0 0 0 0 0 0 0 0 0 0 0 0 0 0 0 0
0 0 0 0 0 0 0 0 0 0 0 0 0 0 0 0 0 0 0 0 0 0 0 0 0 0 0 0 0 0 0 0 0 0 0 0 0 0 0 0 0 0 0 0 0
0 0 0 0 0 0 0 0 0 0 0 0 0 0 0 0 0 0 0 0 0 0 0 0 0 0 0 0 0 0 0 0 0 0 0 0 0 0 0 0 0 0 0 0 0
0 0 0 0 0 0 0 0 0 0 0 0 0 0 0 0 0 0 0 0 0 0 0 0 0 0 0 0 0 0 0 0 0 0 0 0 0 0 0 0 0 0 0 0 0
0 0 0 0 0 0 0 0 0 0 0 0 0 0 0 0 0 0 0 0 0 0 0 0 0 0 0 0 0 0 0 0 0 0 0 0 0 0 0 0 0 0 0 0 0
0 0 0 0 0 0 0 0 0 0 0 0 0 0 0 0 0 0 0 0 0 0 0 0 0 0 0 0 0 0 0 0 0 0 0 0 0 0 0 0 0 0 0 0 0
Wind_Speed_500mb
19 18 19 19 20 21 23 24 26 27 30 30 27 24 23 21 17 12 10 7 8 8 4 1 8 15 15 9 7 7 6 4 7 11 3 3 1 3 4 6 9 12 10 6 6
19 20 19 19 20 21 22 24 26 28 30 31 28 26 24 22 20 17 13 8 6 4 2 6 10 18 9 9 5 6 5 12 4 7 2 4 1 5 2 2 11 16 22 18 15
20 20 21 23 22 23 25 26 27 28 29 31 27 24 21 21 20 7 9 10 8 4 4 8 10 13 6 8 7 7 10 5 3 6 4 2 6 6 3 7 23 12 12 17 23
25 23 26 26 27 28 28 28 30 31 31 31 26 23 19 14 5 4 5 6 7 6 5 10 12 8 7 7 9 4 10 8 5 2 3 4 7 10 24 25 25 27 27 23 25
30 29 36 33 31 31 31 32 33 34 34 33 29 23 17 9 11 12 11 9 8 6 7 9 12 9 5 6 7 6 3 8 11 14 15 17 20 18 35 48 43 46 43 31 26
30 31 34 36 39 38 37 36 35 34 35 34 30 24 16 7 13 13 13 11 10 8 9 11 10 11 5 4 7 2 8 17 13 5 8 6 8 1 5 7 8 10 15 17 35
37 34 35 37 37 39 39 39 38 38 35 32 28 25 23 23 18 14 12 11 10 9 9 9 11 11 11 4 1 3 9 11 2 3 6 3 12 18 32 23 20 15 11 6 8
44 42 39 40 41 38 38 39 38 38 39 34 24 21 14 20 20 18 15 13 10 8 8 9 10 9 4 5 6 4 7 6 1 2 0 4 17 2 0 7 4 20 17 13 9
37 41 40 40 41 38 38 40 41 40 36 33 27 14 12 13 16 20 15 12 12 11 11 11 12 7 7 9 8 8 7 10 10 4 2 6 15 5 6 24 48 38 35 34 31
37 32 34 34 37 39 40 46 55 46 36 29 29 14 17 8 11 16 17 17 10 11 8 7 6 6 5 7 9 11 9 8 9 3 2 6 28 25 38 37 43 44 26 22 24
41 40 42 37 35 42 39 48 17 11 10 15 6 10 7 11 12 15 19 16 11 8 8 2 5 15 24 13 6 10 7 8 4 4 2 11 17 38 25 32 21 16 16 16 11
37 42 45 43 40 42 35 17 14 16 22 32 40 47 41 21 10 20 20 13 11 11 10 6 15 14 11 10 7 6 6 10 6 3 4 6 24 35 9 5 6 14 12 6 5
42 41 40 34 39 27 28 19 22 23 10 21 27 20 20 32 16 19 24 14 8 12 15 14 4 8 11 8 11 8 12 9 9 2 3 10 14 9 2 2 7 8 6 5 17
40 42 45 42 27 17 19 26 24 17 7 13 6 5 11 13 8 14 27 10 4 16 14 12 6 11 9 10 13 8 12 10 10 7 8 4 10 9 6 2 5 7 11 17 30
45 42 41 37 35 22 14 14 24 6 8 0 3 5 12 8 8 4 17 11 9 12 11 9 12 9 7 9 14 6 7 9 5 8 7 6 4 12 1 6 6 7 16 26 35
49 45 42 35 24 18 14 9 8 2 17 2 3 2 4 4 2 7 6 6 5 8 5 8 2 7 6 6 3 17 12 12 8 6 4 10 10 9 10 10 7 8 19 30 40
50 44 45 37 16 10 7 4 3 9 8 9 3 1 3 6 4 7 8 8 11 8 10 3 8 6 8 11 7 4 10 3 5 3 12 2 3 15 8 9 12 18 29 35 41
57 47 40 28 18 15 7 2 12 7 11 1 4 5 6 8 4 7 7 6 11 4 5 11 8 15 9 9 14 12 11 10 15 9 7 7 13 11 9 5 17 29 38 42 43
58 51 29 14 13 7 7 13 15 12 5 1 1 6 5 4 4 4 9 11 16 24 16 10 5 3 1 3 6 11 11 6 13 2 5 6 12 13 7 6 13 29 36 42 40
66 51 15 10 5 8 7 18 10 5 4 2 4 10 8 6 7 7 12 4 8 16 9 7 4 1 2 2 3 5 8 5 3 4 7 7 10 9 12 15 13 16 34 38 39
59 22 6 22 5 12 7 13 10 12 9 8 7 6 8 6 10 11 8 8 4 4 6 7 12 3 6 13 16 6 4 4 2 5 8 2 11 9 20 19 21 21 45 46 41
28 8 11 29 8 9 9 6 6 10 7 11 5 12 8 3 7 8 13 10 5 7 12 9 4 9 16 1 4 3 14 11 6 9 3 2 12 1 14 20 32 35 40 37 32
27 18 12 12 3 8 13 9 9 9 12 10 8 3 3 10 6 11 6 4 5 5 10 7 5 1 11 8 7 9 10 8 5 4 13 10 10 7 12 23 36 39 38 35 31
19 7 10 8 11 14 14 14 15 19 15 14 7 7 4 8 8 8 4 4 4 4 1 6 4 13 15 10 8 10 11 21 19 9 11 22 6 2 12 30 26 36 37 33 35
14 7 12 7 8 10 13 12 13 12 9 17 9 14 16 8 9 19 6 9 10 10 7 9 10 6 6 3 2 6 8 18 29 25 16 14 21 14 28 29 52 59 41 33 37
20 14 13 18 20 12 12 19 28 19 11 14 20 22 14 8 11 21 15 10 8 7 6 2 8 6 7 5 6 8 16 17 21 8 16 8 20 9 20 31 23 48 55 45 45
39 44 34 39 29 11 10 16 14 6 15 24 20 20 19 24 29 38 37 31 24 16 6 4 7 6 18 3 6 9 30 19 12 13 16 21 18 12 12 18 47 66 61 56 44
Wind_Direction_500mb
14 11 7 4 1 359 359 358 357 352 348 342 335 327 323 319 312 291 288 299 316 321 310 109 142 150 146 150 136 136 71 214 235 168 242 1 87 203 239 236 207 201 222 224 234
13 5 1 356 353 350 347 350 351 350 347 343 336 326 322 319 311 281 260 283 289 293 216 145 151 156 139 157 153 106 130 220 217 201 234 319 332 295 225 241 248 232 234 239 241
3 359 349 344 344 340 339 340 341 341 344 344 337 327 321 321 311 276 241 253 269 263 197 170 161 169 154 156 187 162 205 199 243 243 236 265 277 253 215 243 245 226 250 243 231
346 347 345 340 334 331 332 332 334 334 336 341 338 334 324 318 286 307 239 286 292 273 211 174 169 174 144 185 182 199 241 226 257 225 274 239 273 268 229 241 263 276 271 258 239
337 347 342 338 332 327 324 325 327 328 330 334 332 329 323 298 258 268 261 275 279 253 221 189 177 169 196 186 159 183 271 243 253 264 266 264 252 257 263 270 267 265 263 259 242
338 342 338 335 330 329 326 322 319 319 322 323 324 320 312 270 261 267 265 269 266 239 217 194 189 186 162 187 185 190 279 277 286 271 263 260 273 248 248 145 188 278 278 263 234
324 326 326 327 328 326 324 322 319 315 312 312 312 311 299 277 256 255 256 248 241 231 213 195 183 176 165 151 277 335 327 321 229 249 236 283 276 231 259 272 262 283 247 260 252
319 316 320 322 321 324 325 322 318 315 311 307 300 297 267 259 249 242 235 224 210 194 182 168 167 162 150 126 29 53 54 351 350 79 310 132 271 352 359 120 23 325 299 276 262
326 317 312 318 319 318 325 325 320 318 309 298 296 291 259 244 235 227 219 212 193 171 154 151 152 132 121 101 11 6 221 206 304 68 304 160 274 295 183 313 309 308 299 285 267
336 335 325 311 313 314 315 318 317 302 291 283 266 280 240 232 212 200 192 176 169 165 148 169 123 89 50 124 215 198 213 237 240 348 132 229 266 264 279 301 301 306 304 290 268
330 330 338 338 322 325 318 331 334 306 309 243 241 251 265 221 214 203 190 186 176 180 178 88 129 204 208 192 136 131 183 224 229 108 302 240 270 279 291 290 298 312 317 317 274
319 321 323 335 341 330 335 6 351 315 300 283 263 251 251 239 241 223 203 195 168 181 126 41 230 225 109 155 160 157 163 249 286 130 195 321 275 277 268 247 318 320 330 337 171
320 313 310 313 322 326 346 1 345 339 278 283 248 244 240 231 230 228 204 191 161 157 191 177 194 116 148 150 159 207 187 199 207 171 62 331 284 288 197 144 7 27 19 109 147
324 327 310 305 318 325 340 345 339 349 10 271 227 233 193 170 237 196 189 182 178 207 163 235 248 166 175 193 149 225 196 159 149 111 230 9 277 280 183 101 31 55 83 122 143
332 329 325 329 299 300 303 326 323 346 286 319 179 162 171 193 140 173 185 180 182 179 138 237 161 171 175 204 173 217 103 113 87 98 52 312 55 265 127 208 187 141 124 128 139
334 342 329 327 305 295 284 293 330 217 235 337 94 141 132 217 164 128 161 159 124 142 221 247 225 191 184 73 68 152 78 56 62 95 325 223 160 252 190 190 166 163 150 139 140
329 332 337 322 308 258 304 270 21 237 342 295 314 138 259 215 212 179 165 180 169 121 213 200 205 165 142 88 43 83 111 355 353 4 227 47 62 253 218 208 187 173 162 152 146
336 335 332 319 308 240 305 89 217 245 227 285 199 143 232 155 253 187 154 237 230 150 133 177 284 169 181 190 177 191 169 166 200 196 231 2 227 250 202 218 201 176 162 158 154
336 338 334 313 330 190 199 229 209 208 297 198 232 179 228 212 205 207 221 214 207 181 187 160 262 62 94 159 150 180 206 155 108 93 41 208 275 288 171 121 143 162 169 172 166
342 341 3 352 312 184 220 237 248 270 311 52 202 201 224 213 170 183 197 221 247 194 158 230 338 45 142 146 37 173 162 122 10 173 245 275 280 234 183 181 166 162 172 171 171
345 341 51 24 309 211 212 226 282 315 297 245 233 264 260 245 199 185 245 286 299 150 194 171 170 99 36 212 178 154 195 227 224 177 182 239 255 223 186 174 170 173 169 172 180
339 330 302 311 312 217 245 221 307 292 308 274 248 213 197 235 262 253 219 235 358 168 180 203 187 171 200 316 334 275 191 140 164 203 218 137 273 80 191 170 170 172 171 173 181
308 278 311 321 197 262 303 241 270 275 249 286 300 235 285 219 240 216 239 290 314 217 190 192 216 64 337 357 346 216 200 157 137 78 190 173 255 12 155 166 181 170 175 184 192
302 296 293 217 254 283 292 280 265 259 275 261 282 301 244 287 230 269 281 303 323 242 294 169 218 185 212 195 133 194 195 190 183 178 180 222 228 235 173 180 192 188 185 191 194
295 257 256 281 270 216 262 296 315 321 304 344 315 241 247 259 246 252 261 289 239 238 189 171 224 164 258 274 221 222 197 190 207 220 192 223 212 214 195 194 203 196 193 195 204
297 303 312 286 267 249 248 261 265 261 228 257 262 286 306 211 267 301 332 318 284 18 208 342 246 122 294 338 259 254 247 206 225 254 260 278 260 254 226 211 193 212 214 223 230
293 295 295 292 278 260 230 246 243 331 278 270 284 284 280 284 289 292 292 269 251 283 222 227 159 140 252 112 87 299 231 200 192 199 193 223 242 177 203 199 216 228 229 233 247
Wind_Speed_850mb
19 18 19 19 20 21 23 24 26 27 30 30 27 24 23 21 17 12 10 7 8 8 4 1 8 15 15 9 7 7 6 4 7 11 3 3 1 3 4 6 9 12 10 6 6
19 20 19 19 20 21 22 24 26 28 30 31 28 26 24 22 20 17 13 8 6 4 2 6 10 18 9 9 5 6 5 12 4 7 2 4 1 5 2 2 11 16 22 18 15
20 20 21 23 22 23 25 26 27 28 29 31 27 24 21 21 20 7 9 10 8 4 4 8 10 13 6 8 7 7 10 5 3 6 4 2 6 6 3 7 23 12 12 17 23
25 23 26 26 27 28 28 28 30 31 31 31 26 23 19 14 5 4 5 6 7 6 5 10 12 8 7 7 9 4 10 8 5 2 3 4 7 10 24 25 25 27 27 23 25
30 29 36 33 31 31 31 32 33 34 34 33 29 23 17 9 11 12 11 9 8 6 7 9 12 9 5 6 7 6 3 8 11 14 15 17 20 18 35 48 43 46 43 31 26
30 31 34 36 39 38 37 36 35 34 35 34 30 24 16 7 13 13 13 11 10 8 9 11 10 11 5 4 7 2 8 17 13 5 8 6 8 1 5 7 8 10 15 17 35
37 34 35 37 37 39 39 39 38 38 35 32 28 25 23 23 18 14 12 11 10 9 9 9 11 11 11 4 1 3 9 11 2 3 6 3 12 18 32 23 20 15 11 6 8
44 42 39 40 41 38 38 39 38 38 39 34 24 21 14 20 20 18 15 13 10 8 8 9 10 9 4 5 6 4 7 6 1 2 0 4 17 2 0 7 4 20 17 13 9
37 41 40 40 41 38 38 40 41 40 36 33 27 14 12 13 16 20 15 12 12 11 11 11 12 7 7 9 8 8 7 10 10 4 2 6 15 5 6 24 48 38 35 34 31
37 32 34 34 37 39 40 46 55 46 36 29 29 14 17 8 11 16 17 17 10 11 8 7 6 6 5 7 9 11 9 8 9 3 2 6 28 25 38 37 43 44 26 22 24
41 40 42 37 35 42 39 48 17 11 10 15 6 10 7 11 12 15 19 16 11 8 8 2 5 15 24 13 6 10 7 8 4 4 2 11 17 38 25 32 21 16 16 16 11
37 42 45 43 40 42 35 17 14 16 22 32 40 47 41 21 10 20 20 13 11 11 10 6 15 14 11 10 7 6 6 10 6 3 4 6 24 35 9 5 6 14 12 6 5
42 41 40 34 39 27 28 19 22 23 10 21 27 20 20 32 16 19 24 14 8 12 15 14 4 8 11 8 11 8 12 9 9 2 3 10 14 9 2 2 7 8 6 5 17
40 42 45 42 27 17 19 26 24 17 7 13 6 5 11 13 8 14 27 10 4 16 14 12 6 11 9 10 13 8 12 10 10 7 8 4 10 9 6 2 5 7 11 17 30
45 42 41 37 35 22 14 14 24 6 8 0 3 5 12 8 8 4 17 11 9 12 11 9 12 9 7 9 14 6 7 9 5 8 7 6 4 12 1 6 6 7 16 26 35
49 45 42 35 24 18 14 9 8 2 17 2 3 2 4 4 2 7 6 6 5 8 5 8 2 7 6 6 3 17 12 12 8 6 4 10 10 9 10 10 7 8 19 30 40
50 44 45 37 16 10 7 4 3 9 8 9 3 1 3 6 4 7 8 8 11 8 10 3 8 6 8 11 7 4 10 3 5 3 12 2 3 15 8 9 12 18 29 35 41
57 47 40 28 18 15 7 2 12 7 11 1 4 5 6 8 4 7 7 6 11 4 5 11 8 15 9 9 14 12 11 10 15 9 7 7 13 11 9 5 17 29 38 42 43
58 51 29 14 13 7 7 13 15 12 5 1 1 6 5 4 4 4 9 11 16 24 16 10 5 3 1 3 6 11 11 6 13 2 5 6 12 13 7 6 13 29 36 42 40
66 51 15 10 5 8 7 18 10 5 4 2 4 10 8 6 7 7 12 4 8 16 9 7 4 1 2 2 3 5 8 5 3 4 7 7 10 9 12 15 13 16 34 38 39
59 22 6 22 5 12 7 13 10 12 9 8 7 6 8 6 10 11 8 8 4 4 6 7 12 3 6 13 16 6 4 4 2 5 8 2 11 9 20 19 21 21 45 46 41
28 8 11 29 8 9 9 6 6 10 7 11 5 12 8 3 7 8 13 10 5 7 12 9 4 9 16 1 4 3 14 11 6 9 3 2 12 1 14 20 32 35 40 37 32
27 18 12 12 3 8 13 9 9 9 12 10 8 3 3 10 6 11 6 4 5 5 10 7 5 1 11 8 7 9 10 8 5 4 13 10 10 7 12 23 36 39 38 35 31
19 7 10 8 11 14 14 14 15 19 15 14 7 7 4 8 8 8 4 4 4 4 1 6 4 13 15 10 8 10 11 21 19 9 11 22 6 2 12 30 26 36 37 33 35
14 7 12 7 8 10 13 12 13 12 9 17 9 14 16 8 9 19 6 9 10 10 7 9 10 6 6 3 2 6 8 18 29 25 16 14 21 14 28 29 52 59 41 33 37
20 14 13 18 20 12 12 19 28 19 11 14 20 22 14 8 11 21 15 10 8 7 6 2 8 6 7 5 6 8 16 17 21 8 16 8 20 9 20 31 23 48 55 45 45
39 44 34 39 29 11 10 16 14 6 15 24 20 20 19 24 29 38 37 31 24 16 6 4 7 6 18 3 6 9 30 19 12 13 16 21 18 12 12 18 47 66 61 56 44
Wind_Direction_850mb
14 11 7 4 1 359 359 358 357 352 348 342 335 327 323 319 312 291 288 299 316 321 310 109 142 150 146 150 136 136 71 214 235 168 242 1 87 203 239 236 207 201 222 224 234
13 5 1 356 353 350 347 350 351 350 347 343 336 326 322 319 311 281 260 283 289 293 216 145 151 156 139 157 153 106 130 220 217 201 234 319 332 295 225 241 248 232 234 239 241
3 359 349 344 344 340 339 340 341 341 344 344 337 327 321 321 311 276 241 253 269 263 197 170 161 169 154 156 187 162 205 199 243 243 236 265 277 253 215 243 245 226 250 243 231
346 347 345 340 334 331 332 332 334 334 336 341 338 334 324 318 286 307 239 286 292 273 211 174 169 174 144 185 182 199 241 226 257 225 274 239 273 268 229 241 263 276 271 258 239
337 347 342 338 332 327 324 325 327 328 330 334 332 329 323 298 258 268 261 275 279 253 221 189 177 169 196 186 159 183 271 243 253 264 266 264 252 257 263 270 267 265 263 259 242
338 342 338 335 330 329 326 322 319 319 322 323 324 320 312 270 261 267 265 269 266 239 217 194 189 186 162 187 185 190 279 277 286 271 263 260 273 248 248 145 188 278 278 263 234
324 326 326 327 328 326 324 322 319 315 312 312 312 311 299 277 256 255 256 248 241 231 213 195 183 176 165 151 277 335 327 321 229 249 236 283 276 231 259 272 262 283 247 260 252
319 316 320 322 321 324 325 322 318 315 311 307 300 297 267 259 249 242 235 224 210 194 182 168 167 162 150 126 29 53 54 351 350 79 310 132 271 352 359 120 23 325 299 276 262
326 317 312 318 319 318 325 325 320 318 309 298 296 291 259 244 235 227 219 212 193 171 154 151 152 132 121 101 11 6 221 206 304 68 304 160 274 295 183 313 309 308 299 285 267
336 335 325 311 313 314 315 318 317 302 291 283 266 280 240 232 212 200 192 176 169 165 148 169 123 89 50 124 215 198 213 237 240 348 132 229 266 264 279 301 301 306 304 290 268
330 330 338 338 322 325 318 331 334 306 309 243 241 251 265 221 214 203 190 186 176 180 178 88 129 204 208 192 136 131 183 224 229 108 302 240 270 279 291 290 298 312 317 317 274
319 321 323 335 341 330 335 6 351 315 300 283 263 251 251 239 241 223 203 195 168 181 126 41 230 225 109 155 160 157 163 249 286 130 195 321 275 277 268 247 318 320 330 337 171
320 313 310 313 322 326 346 1 345 339 278 283 248 244 240 231 230 228 204 191 161 157 191 177 194 116 148 150 159 207 187 199 207 171 62 331 284 288 197 144 7 27 19 109 147
324 327 310 305 318 325 340 345 339 349 10 271 227 233 193 170 237 196 189 182 178 207 163 235 248 166 175 193 149 225 196 159 149 111 230 9 277 280 183 101 31 55 83 122 143
332 329 325 329 299 300 303 326 323 346 286 319 179 162 171 193 140 173 185 180 182 179 138 237 161 171 175 204 173 217 103 113 87 98 52 312 55 265 127 208 187 141 124 128 139
334 342 329 327 305 295 284 293 330 217 235 337 94 141 132 217 164 128 161 159 124 142 221 247 225 191 184 73 68 152 78 56 62 95 325 223 160 252 190 190 166 163 150 139 140
329 332 337 322 308 258 304 270 21 237 342 295 314 138 259 215 212 179 165 180 169 121 213 200 205 165 142 88 43 83 111 355 353 4 227 47 62 253 218 208 187 173 162 152 146
336 335 332 319 308 240 305 89 217 245 227 285 199 143 232 155 253 187 154 237 230 150 133 177 284 169 181 190 177 191 169 166 200 196 231 2 227 250 202 218 201 176 162 158 154
336 338 334 313 330 190 199 229 209 208 297 198 232 179 228 212 205 207 221 214 207 181 187 160 262 62 94 159 150 180 206 155 108 93 41 208 275 288 171 121 143 162 169 172 166
342 341 3 352 312 184 220 237 248 270 311 52 202 201 224 213 170 183 197 221 247 194 158 230 338 45 142 146 37 173 162 122 10 173 245 275 280 234 183 181 166 162 172 171 171
345 341 51 24 309 211 212 226 282 315 297 245 233 264 260 245 199 185 245 286 299 150 194 171 170 99 36 212 178 154 195 227 224 177 182 239 255 223 186 174 170 173 169 172 180
339 330 302 311 312 217 245 221 307 292 308 274 248 213 197 235 262 253 219 235 358 168 180 203 187 171 200 316 334 275 191 140 164 203 218 137 273 80 191 170 170 172 171 173 181
308 278 311 321 197 262 303 241 270 275 249 286 300 235 285 219 240 216 239 290 314 217 190 192 216 64 337 357 346 216 200 157 137 78 190 173 255 12 155 166 181 170 175 184 192
302 296 293 217 254 283 292 280 265 259 275 261 282 301 244 287 230 269 281 303 323 242 294 169 218 185 212 195 133 194 195 190 183 178 180 222 228 235 173 180 192 188 185 191 194
295 257 256 281 270 216 262 296 315 321 304 344 315 241 247 259 246 252 261 289 239 238 189 171 224 164 258 274 221 222 197 190 207 220 192 223 212 214 195 194 203 196 193 195 204
297 303 312 286 267 249 248 261 265 261 228 257 262 286 306 211 267 301 332 318 284 18 208 342 246 122 294 338 259 254 247 206 225 254 260 278 260 254 226 211 193 212 214 223 230
293 295 295 292 278 260 230 246 243 331 278 270 284 284 280 284 289 292 292 269 251 283 222 227 159 140 252 112 87 299 231 200 192 199 193 223 242 177 203 199 216 228 229 233 247